Location: Alfortville
(48.8058°N, 2.4204°E)
Time: 21:42:20
(UTC+00:00)

SR - Pass Details

Date: 22 April 2026
Orbit: 568 x 852 km, 66.7° (Epoch: 19 May)

Event Time Altitude Azimuth Distance (km) Brightness Sun altitude
Rises 20:45:15 0° 324° (NW) 3,283 ? -16.6°
Reaches altitude 10° 20:47:38 10° 326° (NNW) 2,387 ? -16.9°
Maximum altitude 20:53:11 77° 53° (NE) 861 ? -17.6°
Enters shadow 20:56:03 31° 134° (SE) 1,446 ? -17.9°
